Location: George Washington National Forest Helicopter Landing Site
(38.6463°N, 79.0851°W)
Time: 01:13:13
(UTC-04:00)

Tiros 1 - Pass Details

Date: 03 September 2019
Orbit: 630 x 664 km, 48.4° (Epoch: 18 September)

Event Time Altitude Azimuth Distance (km) Brightness Sun altitude
Rises 22:57:01 0° 287° (WNW) 2,916 11.3 -33.9°
Reaches altitude 10° 22:59:43 10° 301° (WNW) 2,007 10.4 -34.3°
Enters shadow 23:02:17 22° 332° (NNW) 1,390 9.4 -34.6°
